SL-8 DEB, 1478

Orbit data source: Space-Track

SL-8 DEB, 1478 is space debris in LEO originally from a launch on Mon, 15 Mar 1965 UTC launched from the Tyuratam Missile And Space Complex (TTMTR). Debris objects in space refer to the collection of defunct objects orbiting the Earth. Examples of debris include non-operational satellites, rocket bodies, and fragments generated from explosions, collisions, or faulty payload assembly.

Loading next visibility...
SL-8 DEB details
Identifier
1478, 1965-020BC
Orbit
LEO
Last TLE update18 hours ago
Origin
Flag of CISRVSN (CIS)
ManufacturerUnknown
MissionSpacecraft
Bus & MotorUnknown
MassUnknown
Launch date (UTC)
1965-03-15 (60 years ago)
Launch vehicleUnknown
Launch site
Tyuratam Missile And Space Complex (TTMTR)
Object type
Payload
Rocket body
Debris
Shape & HBRUnknown
Radar Cross SectionMedium (>0.1 m² and <1 m²)

Expand to show TLE details & history

TLE from 18 hours ago
0 SL-8 DEB
1 01478U 65020BC  25035.50071809  .00010934  00000-0  51061-2 0  9990
2 01478  56.0765 177.7433 0604095 141.2431 223.3510 13.52960311857437
Epoch: 2025-02-04T12:01Z
Definitive object data (Epoch: 2025-02-04T12:01:02.042Z)
Latitude-0.00008°
Longitude-137.42037°
Altitude1,401.309 km
Speed6.995 km/s
True Right ascension11h 50m 58s
True Declination0° 00' 00"
Sunlit
Object was in full shadow at TLE epoch
Visualization TLE readout
Latitude43.96498°
Longitude-99.68377°
Altitude1,006.903 km
Speed7.383 km/s
Apparent Right ascension17h 04m 24s
Apparent Declination7° 50' 35"
Sunlit
Object is in daylight
Visualization observer readout
Local Sidereal Time08:04:30
Azimuth51.677° ENE
Elevation-26.709°
Doppler factor1
Orbital elements
Apogee altitude1,510.602 km
Perigee altitude611.79 km
Semi-major axis7,439.333 km
Eccentricity0.0604095
Inclination56.0765°
RAAN177.7433°
Arg. of periapsis141.2431°
True anomaly218.85141°
Mean anomaly223.351°
Eccentric anomaly221.07675°
Mean motion3.38253 °/min
BSTAR0.0051061
Orbital period106.43 mins
Loading maneuver chart data...
Loading historical data...
Loading historical data...
Loading historical data...
Loading historical data...
Loading historical data...
Loading historical data...
Loading historical data...

SL-8 DEB Visibility forecast

Observer location: undefined°, undefined

Span
Click to sort rows by Start time (UTC) header in descending order
Start Az.
Max El. time (UTC)
Max El. Az.
Max El.
End time (UTC)
End Az.
4 mins2025-02-05 09:26:24.283Z132.419° SE2025-02-05 09:28:24.283Z116.699° SE11.78°2025-02-05 09:30:24.283Z100.254° ESE
12 mins2025-02-05 11:12:24.283Z205.241° SW2025-02-05 11:18:24.283Z135.91° SSE41.018°2025-02-05 11:24:24.283Z52.874° ENE
10 mins2025-02-05 13:04:24.283Z264.613° W2025-02-05 13:09:24.283Z322.169° NNW31.035°2025-02-05 13:14:24.283Z30.504° NE
5 mins2025-02-05 14:59:24.283Z321.876° NNW2025-02-05 15:01:24.283Z344.082° N14.833°2025-02-05 15:04:24.283Z20.363° NNE
4 mins2025-02-05 16:52:24.283Z347.37° N2025-02-05 16:54:24.283Z14.357° NNE15.661°2025-02-05 16:56:24.283Z43.286° NE
6 mins2025-02-05 18:43:24.283Z329.26° NNW2025-02-05 18:46:24.283Z57.114° ENE39.137°2025-02-05 18:49:24.283Z115.53° SE
4 mins2025-02-05 20:34:24.283Z265.945° W2025-02-05 20:36:24.283Z233.606° WSW16.126°2025-02-05 20:38:24.283Z203.695° SW
|